[[{"header":{"parameterUnit":"m.s-1","parameterCategory":1,"la1":30.2991,"la2":30.254,"lo1":-89.0895,"lo2":-89.0444,"dy":0.0017,"dx":0.0017,"nx":28,"ny":28,"refTime":"2024-04-22T21:00:00:Z","depth":0,"parameterNumber":2,"parameterNumberName":"U-component_of_WINDS"},"data":[0,0,0,0,0,0,0,0,0,0,0,0,0,0,0,0,0,0,0,0,0,0,0,0,0,0,0,0,0,0,0,0,0,0,0,0,0,0,0,0,0,0,0,0,0,0,0,0,0,0,0,0,0,0,0,0,0,0,0.5405,0.5405,0,0.5354,0.5353,0.5353,0.5318,0.5317,0.5317,0.5317,0.5263,0.5262,0.5261,0,0,0,0,0,0,0,0,0,0,0,0,0,0.5471,0.547,0.5405,0.5405,0.5404,0.5354,0.5353,0.5353,0.5318,0.5317,0.5317,0.5317,0.5264,0.5262,0.5261,0,0,0,0,0,0,0,0,0,0,0,0,0,0.5433,0.547,0.5405,0.5381,0.5378,0.5354,0.5353,0.5352,0.5318,0.5317,0.5317,0.5317,0.5264,0.5263,0.5261,0.5257,0,0,0.5255,0.5255,0,0,0,0,0,0,0,0,0.5435,0.5431,0.5385,0.5382,0.5379,0.5342,0.5357,0.5321,0.5318,0.5341,0.5317,0.5316,0.529,0.5286,0.5277,0.5255,0.5253,0.5255,0.5254,0.5253,0.5253,0,0,0,0,0,0,0,0.5438,0.5433,0.5385,0.5384,0.5381,0.5371,0.5366,0.535,0.5318,0.5339,0.5336,0.533,0.5288,0.5279,0.5275,0.5252,0.5255,0.5254,0.5253,0.5252,0.5222,0.5222,0,0,0,0,0,0,0.5445,0.5435,0.5387,0.5383,0.5407,0.537,0.5364,0.5354,0.5318,0.5312,0.5331,0.5329,0.5282,0.5278,0.5273,0.5265,0.5253,0.5252,0.5251,0.5222,0.5222,0.5222,0,0,0,0,0,0,0.5446,0.5441,0.5389,0.5409,0.5401,0.537,0.5359,0.5353,0.5344,0.5312,0.5306,0.5327,0.5282,0.5276,0.5261,0.5263,0.5251,0.5249,0.5221,0.5222,0.5222,0.5251,0,0,0,0,0,0,0.5448,0.5442,0.5441,0.5409,0.54,0.5378,0.5359,0.5353,0.5341,0.5338,0.5307,0.5302,0.5281,0.5264,0.5259,0.5261,0.5248,0.5221,0.5222,0.5222,0.5249,0.5252,0.5254,0,0,0,0,0,0.5451,0.5451,0.5441,0.5435,0.5398,0.5378,0.5373,0.535,0.5342,0.534,0.5319,0.5303,0.5264,0.5263,0.5257,0.5258,0.5221,0.5221,0.5222,0.5248,0.5252,0.5254,0,0,0,0,0,0,0.5484,0.5446,0.5435,0.5425,0.5405,0.5372,0.5369,0.5354,0.5336,0.5334,0.5305,0.5298,0.5286,0.5271,0.527,0.5252,0.524,0.524,0.5262,0.5265,0.5267,0.5271,0.5246,0,0,0,0,0,0.549,0.5477,0.5445,0.5439,0.543,0.5401,0.5392,0.5375,0.5353,0.5345,0.5323,0.5302,0.5285,0.5274,0.5257,0.5247,0.5239,0.5245,0.5247,0.5249,0.5249,0.5241,0.5243,0.5224,0.5224,0.5224,0,0,0.5502,0.548,0.5474,0.5445,0.5428,0.5414,0.5395,0.5381,0.5371,0.5343,0.5327,0.531,0.5285,0.5272,0.5265,0.5259,0.5252,0.525,0.5252,0.5251,0.5242,0.5244,0.5245,0.5225,0.5225,0.5225,0,0,0.5517,0.55,0.5492,0.5475,0.5449,0.543,0.5429,0.5398,0.5386,0.537,0.5348,0.5334,0.5306,0.5288,0.5276,0.5283,0.5267,0.5278,0.529,0.5283,0.5284,0.5285,0.5286,0.5287,0.5278,0.5278,0.5278,0,0.5536,0.5515,0.549,0.5478,0.5465,0.5439,0.543,0.5415,0.5385,0.5376,0.5369,0.5332,0.5313,0.5295,0.5297,0.5288,0.5284,0.5281,0.5286,0.5287,0.5288,0.5288,0.5289,0.528,0.5279,0.5279,0.5279,0,0.5538,0.5524,0.5521,0.5492,0.5479,0.5469,0.5441,0.5431,0.5415,0.5397,0.538,0.5356,0.5333,0.5327,0.5312,0.5307,0.5303,0.5292,0.528,0.5291,0.5291,0.5292,0.5282,0.5281,0.5281,0.528,0,0,0.5572,0.5529,0.5529,0.5514,0.5483,0.5472,0.546,0.5437,0.5428,0.5408,0.5396,0.5372,0.536,0.5346,0.5328,0.5322,0.5327,0.5311,0.531,0.5314,0.5318,0.5326,0.5326,0.5316,0.5316,0.5316,0.5319,0,0.5582,0.5559,0.5536,0.5521,0.5506,0.5481,0.547,0.545,0.5432,0.5416,0.5396,0.5379,0.5366,0.5357,0.535,0.5328,0.5327,0.5328,0.5304,0.5303,0.531,0.5327,0.5335,0.5339,0.5319,0.5319,0.5319,0,0.559,0.557,0.5554,0.5523,0.5516,0.5507,0.5483,0.5469,0.5445,0.5432,0.5415,0.5397,0.5381,0.5371,0.5349,0.535,0.5339,0.5326,0.5326,0.5322,0.5311,0.5322,0.534,0.534,0.5319,0.5319,0.5319,0,0.5614,0.5584,0.557,0.5559,0.5523,0.5517,0.5501,0.5477,0.5464,0.5443,0.5434,0.5412,0.54,0.5383,0.5358,0.5353,0.5337,0.5326,0.5325,0.5326,0.5323,0.5323,0.5338,0.5318,0.5317,0.5317,0.5317,0,0.5626,0.5617,0.558,0.5572,0.556,0.5533,0.5522,0.5504,0.5482,0.5469,0.5446,0.5433,0.5402,0.5385,0.5366,0.5349,0.5344,0.5333,0.5327,0.5334,0.5335,0.5326,0.5324,0.5318,0.5318,0.5318,0.5318,0,0.5651,0.5627,0.5609,0.5577,0.5568,0.5561,0.5532,0.5522,0.5503,0.5486,0.548,0.545,0.5429,0.5403,0.5374,0.5361,0.5346,0.5339,0.5354,0.5351,0.5352,0.5352,0.536,0.5359,0.5341,0.5341,0.5341,0,0.566,0.5652,0.5618,0.5608,0.5593,0.5577,0.5563,0.5536,0.5524,0.5494,0.5487,0.5465,0.5446,0.5414,0.5388,0.5366,0.5357,0.5361,0.5353,0.536,0.5355,0.5356,0.5354,0.5363,0.5364,0.5364,0.5364,0,0.5677,0.5665,0.5648,0.5625,0.561,0.5591,0.5571,0.5564,0.5532,0.5519,0.5498,0.5483,0.5453,0.543,0.5404,0.5387,0.537,0.5367,0.5365,0.5372,0.5381,0.5374,0.5359,0.5367,0.5366,0.5366,0.5366,0.5366,0.5693,0.5685,0.5659,0.564,0.5622,0.5603,0.5592,0.5571,0.5553,0.5527,0.5512,0.5491,0.5465,0.5428,0.5412,0.5394,0.5388,0.5386,0.5386,0.5385,0.5387,0.5384,0.539,0.539,0.539,0.5389,0.5389,0,0.5708,0.5691,0.5673,0.5646,0.563,0.5616,0.5593,0.558,0.5562,0.554,0.5521,0.5496,0.5474,0.5447,0.5423,0.5413,0.5405,0.5408,0.5408,0.5404,0.5394,0.5398,0.5415,0.5415,0.5415,0.5415,0.5415,0.5415,0.5714,0.5698,0.5683,0.5657,0.564,0.5619,0.5607,0.5589,0.5571,0.5544,0.5526,0.5509,0.5484,0.5457,0.5436,0.5429,0.542,0.5425,0.5415,0.5407,0.5405,0.5403,0.5405,0.5424,0.5424,0.5426,0.5426,0.5426]},{"header":{"parameterUnit":"m.s-1","parameterCategory":1,"la1":30.2991,"la2":30.254,"lo1":-89.0895,"lo2":-89.0444,"dy":0.0017,"dx":0.0017,"nx":28,"ny":28,"refTime":"2024-04-22T21:00:00:Z","depth":0,"parameterNumber":3,"parameterNumberName":"V-component_of_WINDS"},"data":[0,0,0,0,0,0,0,0,0,0,0,0,0,0,0,0,0,0,0,0,0,0,0,0,0,0,0,0,0,0,0,0,0,0,0,0,0,0,0,0,0,0,0,0,0,0,0,0,0,0,0,0,0,0,0,0,0,0,0.7681,0.7682,0,0.7784,0.7785,0.7786,0.7766,0.7764,0.7763,0.7761,0.7862,0.7866,0.7871,0,0,0,0,0,0,0,0,0,0,0,0,0,0.7463,0.7467,0.7681,0.7682,0.7683,0.7783,0.7785,0.7786,0.7767,0.7764,0.7762,0.776,0.7861,0.7866,0.7871,0,0,0,0,0,0,0,0,0,0,0,0,0,0.7561,0.7469,0.7681,0.7686,0.7687,0.7783,0.7785,0.7786,0.7767,0.7764,0.7762,0.7759,0.7859,0.7865,0.7872,0.7968,0,0,0.7892,0.7895,0,0,0,0,0,0,0,0,0.7555,0.7569,0.7684,0.7686,0.7687,0.7759,0.7745,0.7847,0.7768,0.7737,0.7761,0.7758,0.783,0.7839,0.7864,0.7972,0.7977,0.7893,0.7897,0.7899,0.7901,0,0,0,0,0,0,0,0.7549,0.7564,0.7721,0.7685,0.7688,0.7681,0.7692,0.7764,0.7797,0.7739,0.7738,0.7751,0.783,0.7857,0.7866,0.7978,0.7892,0.7898,0.7902,0.7905,0.8169,0.8171,0,0,0,0,0,0,0.7541,0.7559,0.7718,0.7724,0.7613,0.7688,0.77,0.7739,0.7796,0.7803,0.7753,0.7749,0.7848,0.7858,0.7869,0.7985,0.7899,0.7906,0.7909,0.8165,0.8169,0.8172,0,0,0,0,0,0,0.7536,0.7555,0.7714,0.7641,0.7661,0.7694,0.7739,0.7742,0.777,0.7807,0.7812,0.7775,0.7846,0.786,0.7943,0.7988,0.7908,0.7914,0.8162,0.8167,0.8171,0.8217,0,0,0,0,0,0,0.753,0.7554,0.7592,0.7642,0.7665,0.7788,0.7741,0.7746,0.7782,0.7778,0.7829,0.7835,0.7845,0.7934,0.795,0.7996,0.792,0.8158,0.8164,0.8169,0.8211,0.8222,0.8231,0,0,0,0,0,0.7522,0.76,0.7594,0.7613,0.7714,0.779,0.7803,0.7814,0.7785,0.7823,0.7847,0.7833,0.798,0.7942,0.796,0.8009,0.8155,0.8162,0.8169,0.8207,0.822,0.8231,0,0,0,0,0,0,0.7552,0.7607,0.76,0.7697,0.7739,0.7787,0.7835,0.7828,0.7879,0.7873,0.7883,0.7895,0.7979,0.8002,0.7959,0.8104,0.8063,0.8074,0.8086,0.8099,0.8109,0.8102,0.7925,0,0,0,0,0,0.7571,0.763,0.7673,0.7754,0.7776,0.7802,0.7836,0.784,0.7884,0.7902,0.7931,0.7973,0.8028,0.8065,0.8118,0.8214,0.8224,0.8256,0.8266,0.8274,0.8284,0.8335,0.8349,0.8195,0.8195,0.8195,0,0,0.7608,0.7645,0.7682,0.7761,0.7795,0.7854,0.7817,0.7882,0.7926,0.7911,0.7992,0.8015,0.8061,0.8151,0.8192,0.8173,0.8328,0.8283,0.8289,0.8294,0.8343,0.8358,0.8371,0.82,0.8199,0.8198,0,0,0.7707,0.7742,0.7813,0.7847,0.7898,0.7915,0.7931,0.798,0.7995,0.8076,0.8066,0.8117,0.8213,0.8247,0.8276,0.8387,0.8376,0.8403,0.8457,0.8506,0.8519,0.8529,0.8568,0.8582,0.8412,0.8413,0.8413,0,0.7748,0.7839,0.785,0.7916,0.795,0.794,0.8011,0.8043,0.8109,0.8132,0.811,0.8229,0.826,0.8357,0.8384,0.8408,0.8427,0.8398,0.8516,0.8527,0.8537,0.8574,0.8589,0.8416,0.8415,0.8415,0.8415,0,0.7885,0.7948,0.7999,0.8064,0.8104,0.8172,0.8191,0.823,0.8231,0.8249,0.8331,0.8367,0.8427,0.8451,0.8452,0.8547,0.8534,0.8514,0.8474,0.8555,0.859,0.8604,0.842,0.8419,0.8418,0.8417,0,0,0.8007,0.8077,0.8095,0.8124,0.8179,0.8227,0.8293,0.8353,0.8386,0.8431,0.8486,0.8567,0.8548,0.8582,0.8586,0.863,0.8714,0.8604,0.8605,0.8623,0.882,0.8835,0.8852,0.8707,0.8709,0.8712,0.8816,0,0.8112,0.8231,0.8242,0.8349,0.8406,0.8397,0.8454,0.8493,0.8512,0.8562,0.8581,0.8638,0.861,0.863,0.8673,0.8695,0.8754,0.8687,0.8757,0.8759,0.8746,0.887,0.8886,0.8984,0.883,0.8832,0.8834,0,0.825,0.83,0.8412,0.8458,0.8483,0.8535,0.859,0.8638,0.8681,0.8691,0.8728,0.8727,0.8793,0.875,0.8841,0.8796,0.8824,0.8839,0.8843,0.885,0.8802,0.888,0.9015,0.9029,0.8856,0.8854,0.8853,0,0.8327,0.8422,0.8502,0.8526,0.8582,0.8619,0.8643,0.8684,0.8719,0.8766,0.8788,0.8842,0.8872,0.8913,0.8925,0.8892,0.9015,0.8973,0.9024,0.9024,0.9051,0.9049,0.9192,0.9069,0.9069,0.9069,0.9069,0,0.8442,0.8511,0.8537,0.8586,0.8662,0.8673,0.8748,0.877,0.8806,0.8858,0.8852,0.8901,0.8914,0.8964,0.8973,0.9047,0.906,0.9069,0.907,0.907,0.9068,0.9089,0.9082,0.9073,0.9072,0.9071,0.907,0,0.8542,0.8562,0.8648,0.8694,0.8707,0.8761,0.88,0.8846,0.8862,0.8928,0.8944,0.897,0.9029,0.9044,0.9114,0.912,0.9207,0.9202,0.9193,0.9193,0.9243,0.9238,0.9404,0.9426,0.9289,0.929,0.9291,0,0.8615,0.8668,0.8719,0.8754,0.8781,0.8837,0.8872,0.8884,0.8921,0.8974,0.9013,0.9071,0.9118,0.9212,0.9236,0.9289,0.9285,0.934,0.9293,0.929,0.9286,0.9283,0.9287,0.9349,0.935,0.9351,0.9352,0,0.8741,0.8748,0.8801,0.8856,0.8899,0.8943,0.8985,0.9013,0.9031,0.9072,0.9133,0.917,0.9241,0.9298,0.9351,0.9374,0.9366,0.9367,0.9381,0.9381,0.9373,0.9378,0.9217,0.9363,0.9362,0.9361,0.9361,0.936,0.8829,0.8876,0.8919,0.8977,0.901,0.9049,0.9095,0.9118,0.9169,0.9229,0.9232,0.9297,0.9337,0.9408,0.9434,0.9484,0.9468,0.9489,0.9494,0.9499,0.9504,0.9365,0.9494,0.9493,0.9493,0.9493,0.9493,0,0.8955,0.8982,0.9036,0.9095,0.914,0.9129,0.9175,0.9213,0.9271,0.931,0.9356,0.9425,0.948,0.9508,0.9562,0.9597,0.9594,0.9611,0.9608,0.9614,0.9515,0.9497,0.9612,0.9612,0.9612,0.9612,0.9612,0.9612,0.9026,0.9104,0.9116,0.9209,0.9235,0.93,0.9327,0.9362,0.9393,0.9471,0.9517,0.9535,0.9569,0.9626,0.9675,0.9682,0.9702,0.972,0.9725,0.9633,0.9621,0.9609,0.9592,0.9725,0.9725,0.9819,0.982,0.982]}]]